Home > Weather > Dover > Past weeks

Flag for USA Past Weather in Dover, Delaware, USA — Yesterday and Last 2 Weeks

Now
90 °F

Passing clouds.


Feels Like: 102 °F
Forecast: 74 / 91 °F
Wind: 15 mph from Northwest

Location: Dover Air Force Base

Current Time: Aug 26, 2016 at 2:45:37 PM

Latest Report: Aug 26, 2016 at 1:58 PM


Visibility: 10 mi

Pressure: 30.02 "Hg

Humidity: 62%

Dew Point: 76 °F

Location of DoverLocation

Past Weather in Dover — Graph

°F

Dover Temperature Yesterday

Maximum temperature yesterday: 87 °F (at 2:58 PM)
Minimum temperature yesterday: 66 °F (at 1:58 AM)
Average temperature yesterday: 77 °F

High & Low Weather Summary for the Past Weeks

 TemperatureHumidityPressure
High97 °F (Aug 13, 2:58 PM)100% (Aug 11, 11:58 PM)30.34 "Hg (Aug 11, 11:58 PM)
Low60 °F (Aug 23, 6:58 AM)52% (Aug 23, 3:58 PM)29.72 "Hg (Aug 21, 4:58 PM)
Average80 °F84%30.03 "Hg
* Reported Aug 11 12:58 PM — Aug 26 12:58 PM, Dover, Weather by CustomWeather, © 2016

Note: Actual official high and low records may vary slightly from our data, if they occured in-between our weather recording intervals... More about our weather records

Advertising

Dover Weather History for the Previous 24 Hours

Scroll right to see more
 ConditionsComfort  
Time TempWeatherWind HumidityBarometerVisibility
12:58 PM
Fri, Aug 26
90 °FPassing clouds.14 mph65%30.02 "Hg10 mi
11:58 AM90 °FSunny.12 mph67%30.02 "Hg10 mi
10:58 AM88 °FSunny.7 mph75%30.03 "Hg10 mi
9:58 AM85 °FSunny.10 mph84%30.03 "Hg10 mi
8:58 AM81 °FSunny.8 mph100%30.03 "Hg10 mi
7:58 AM77 °FPassing clouds.9 mph100%30.03 "Hg10 mi
6:58 AM76 °FClear.8 mph100%30.03 "Hg10 mi
6:02 AM75 °FPartly cloudy.7 mph100%30.01 "Hg10 mi
5:58 AM76 °FLight rain. Passing clouds.8 mph100%30.02 "Hg10 mi
4:58 AM75 °FPassing clouds.9 mph100%30.01 "Hg10 mi
3:58 AM75 °FPassing clouds.9 mph100%30.00 "Hg10 mi
2:58 AM74 °FClear.7 mph100%30.01 "Hg10 mi
1:58 AM74 °FClear.8 mph100%30.01 "Hg10 mi
12:58 AM74 °FClear.7 mph100%30.02 "Hg10 mi
11:58 PM
Thu, Aug 25
75 °FClear.7 mph98%30.03 "Hg10 mi
10:58 PM75 °FClear.7 mph100%30.03 "Hg10 mi
9:58 PM76 °FClear.5 mph95%30.03 "Hg10 mi
8:58 PM78 °FClear.3 mph85%30.04 "Hg10 mi
7:58 PM81 °FSunny.7 mph75%30.03 "Hg10 mi
6:58 PM83 °FPassing clouds.13 mph70%30.02 "Hg10 mi
5:58 PM85 °FScattered clouds.13 mph69%30.02 "Hg10 mi
4:58 PM85 °FPartly sunny.13 mph67%30.03 "Hg10 mi
3:58 PM85 °FBroken clouds.15 mph67%30.03 "Hg10 mi
2:58 PM87 °FPassing clouds.14 mph63%30.04 "Hg10 mi
Weather by CustomWeather, © 2016

See weather overviewHow to use our weather pages